FW5674 Weather Reports


time (UTC)temp
F
wind
direction
speed
knots
gust
knots
rain 1hr
in
rain 24hr
in
rain mn
in
humidity
%
barometer
mb
20260509123040 55 360 0.9 7.0 0.00 0.00 0.00 86 1006.0
20260509121536 54 0 0.9 2.6 0.00 0.00 0.00 87 1005.9
20260509120041 53 360 0.9 5.2 0.00 0.00 0.00 88 1006.0
20260509114544 53 360 0.9 3.5 0.00 0.00 0.00 87 1005.7
20260509113050 53 0 0.0 7.0 0.00 0.00 0.00 87 1005.8
20260509111538 53 0 1.7 7.0 0.00 0.00 0.00 87 1005.5
20260509110045 53 360 1.7 5.2 0.00 0.00 0.00 87 1005.4
20260509104543 53 360 0.9 4.3 0.00 0.01 0.00 87 1005.2
20260509103048 53 360 0.9 3.5 0.00 0.01 0.00 87 1005.2
20260509101557 53 360 0.0 3.5 0.00 0.01 0.00 86 1005.6
20260509100041 53 360 0.0 2.6 0.00 0.01 0.00 86 1005.6
20260509094549 53 0 0.0 2.6 0.00 0.01 0.00 86 1005.9
20260509093041 53 0 0.0 5.2 0.00 0.01 0.00 85 1005.9
20260509091543 53 360 0.9 3.5 0.00 0.01 0.00 85 1006.0
20260509090048 53 0 0.9 5.2 0.00 0.01 0.00 85 1006.2
20260509084544 53 0 0.0 3.5 0.00 0.01 0.00 84 1006.2
20260509083049 53 360 0.9 4.3 0.00 0.01 0.00 84 1006.3
20260509081543 53 0 0.0 1.7 0.00 0.01 0.00 83 1006.1
20260509080046 54 0 0.0 2.6 0.00 0.01 0.00 83 1006.0
20260509074545 54 0 0.0 3.5 0.00 0.01 0.00 82 1006.4
20260509073038 54 0 0.0 3.5 0.00 0.01 0.00 82 1006.4
20260509071541 54 360 0.0 4.3 0.00 0.01 0.00 82 1006.8
20260509070048 55 360 0.9 4.3 0.00 0.01 0.00 82 1007.0
20260509064542 55 0 0.9 5.2 0.00 0.01 0.00 81 1007.0
20260509063040 55 0 0.0 3.5 0.00 0.01 0.00 81 1007.1
20260509061536 55 360 0.9 3.5 0.00 0.01 0.00 81 1007.3
20260509060054 55 360 0.9 4.3 0.00 0.01 0.00 80 1007.6
20260509054546 56 0 0.0 2.6 0.00 0.01 0.00 79 1007.5
20260509053105 56 0 0.0 2.6 0.00 0.01 0.00 79 1007.4
20260509051546 56 360 0.0 3.5 0.00 0.01 0.00 78 1007.4
20260509050041 57 0 0.9 4.3 0.00 0.01 0.00 77 1007.6
20260509044534 57 360 0.0 8.7 0.00 0.01 0.01 76 1007.7
20260509043056 57 360 0.0 7.8 0.00 0.01 0.01 75 1007.6
20260509041542 57 360 0.9 4.3 0.00 0.01 0.01 74 1007.6
20260509040043 56 360 0.9 4.3 0.00 0.01 0.01 74 1007.7
20260509034540 56 0 0.0 4.3 0.00 0.01 0.01 73 1007.8
20260509033042 56 0 0.9 2.6 0.00 0.01 0.01 72 1007.9
20260509031555 56 360 0.0 3.5 0.00 0.01 0.01 72 1007.9
20260509030101 55 360 0.9 3.5 0.00 0.01 0.01 70 1007.8
20260509024541 55 0 0.0 0.9 0.00 0.01 0.01 69 1007.9
20260509023037 55 360 0.0 1.7 0.00 0.01 0.01 68 1008.1
20260509021542 55 0 0.0 0.9 0.00 0.01 0.01 67 1008.2
20260509020042 55 0 0.0 0.9 0.00 0.01 0.01 67 1008.1
20260509014536 55 0 0.0 2.6 0.00 0.01 0.01 66 1008.1
20260509013040 56 0 0.0 2.6 0.00 0.01 0.01 66 1008.1
20260509011538 56 360 0.0 2.6 0.00 0.01 0.01 64 1008.0
20260509010036 56 0 0.0 3.5 0.00 0.01 0.01 63 1008.1
20260509004548 56 360 0.9 4.3 0.00 0.01 0.01 61 1008.0
20260509003041 57 360 0.9 4.3 0.00 0.01 0.01 58 1008.1
20260509001541 57 0 0.0 4.3 0.00 0.01 0.01 56 1008.2
20260509000041 57 360 0.9 7.8 0.00 0.01 0.01 55 1008.2
20260508234538 58 0 1.7 7.0 0.00 0.01 0.01 54 1008.4
20260508233040 60 360 1.7 7.0 0.00 0.01 0.01 54 1008.3
20260508231542 60 360 1.7 5.2 0.00 0.01 0.01 54 1008.6
20260508230041 60 360 1.7 7.8 0.00 0.01 0.01 53 1008.6
20260508224553 60 360 1.7 5.2 0.00 0.01 0.01 52 1008.6
20260508223049 60 360 2.6 7.0 0.00 0.01 0.01 53 1008.7
20260508221535 60 360 1.7 8.7 0.00 0.01 0.01 52 1008.7
20260508220047 60 360 1.7 5.2 0.00 0.01 0.01 53 1008.8
20260508214540 60 360 1.7 5.2 0.00 0.04 0.01 53 1009.0
20260508213042 60 360 2.6 7.8 0.00 0.04 0.01 56 1009.0
20260508211540 59 360 0.9 7.8 0.00 0.04 0.01 60 1009.0
20260508210043 59 360 2.6 7.8 0.00 0.04 0.01 61 1008.9
20260508204536 59 360 2.6 8.7 0.00 0.04 0.01 60 1009.2
20260508203044 59 360 2.6 7.8 0.00 0.04 0.01 58 1009.4
20260508201541 58 360 3.5 10.4 0.00 0.04 0.01 60 1009.7
20260508200040 59 360 3.5 8.7 0.00 0.04 0.01 55 1010.0
20260508194539 59 360 1.7 9.6 0.00 0.04 0.01 53 1010.1
20260508193035 60 70 1.7 9.6 0.00 0.04 0.01 55 1010.3
20260508191547 62 360 3.5 11.3 0.00 0.04 0.01 49 1010.4
20260508190040 62 360 5.2 9.6 0.00 0.04 0.01 46 1010.7
20260508184544 62 360 4.3 9.6 0.00 0.04 0.01 45 1010.9
20260508183040 62 360 4.3 9.6 0.00 0.04 0.01 45 1011.1
20260508181535 62 46 5.2 11.3 0.00 0.04 0.01 43 1011.2
20260508180038 62 360 6.1 12.2 0.00 0.04 0.01 40 1011.3
20260508174549 61 360 3.5 11.3 0.00 0.04 0.01 45 1011.6
20260508173040 62 360 5.2 12.2 0.00 0.04 0.01 43 1011.7
20260508171538 63 360 2.6 8.7 0.00 0.04 0.01 45 1012.0
20260508170035 62 360 3.5 9.6 0.00 0.04 0.01 46 1012.2
20260508164535 61 360 1.7 11.3 0.00 0.04 0.01 50 1012.3
20260508163041 61 360 4.3 7.8 0.00 0.04 0.01 52 1012.6
20260508161541 62 360 2.6 8.7 0.00 0.04 0.01 50 1012.6
20260508160041 62 360 2.6 7.8 0.00 0.04 0.01 52 1012.8
20260508154534 62 360 1.7 7.8 0.00 0.04 0.01 55 1012.9
20260508153044 62 360 1.7 8.7 0.00 0.04 0.01 60 1013.0
20260508151542 61 360 0.9 3.5 0.00 0.04 0.01 59 1013.0
20260508150054 60 360 0.9 3.5 0.00 0.04 0.01 62 1013.0
20260508144537 59 360 0.9 3.5 0.00 0.04 0.01 64 1013.1
20260508143049 57 89 0.0 4.3 0.00 0.04 0.01 68 1013.3
20260508141542 55 360 0.9 4.3 0.00 0.04 0.01 72 1013.4
20260508140049 54 360 2.6 5.2 0.00 0.04 0.01 76 1013.1
20260508134541 53 76 2.6 5.2 0.00 0.04 0.01 78 1013.3
20260508133038 52 360 0.9 3.5 0.00 0.04 0.01 82 1013.3
20260508131535 50 360 1.7 4.3 0.00 0.04 0.01 88 1013.3
20260508130043 49 360 0.0 0.0 0.00 0.04 0.01 91 1013.4
20260508124541 48 0 0.0 2.6 0.00 0.04 0.01 92 1013.5